Погода в Октёмцах

Россия / Республика Саха (Якутия)     61°40′26″N   129°25′31″E
В апреле 2022 года жителям России запретили посещать сайт meteo.paraplan.net по решению Генеральной прокуратуры. Аудитория сайта уменьшилась в 10 раз. Владельцы сайта не видят смысла в поддержке погодного сервера в таких условиях. Сайт будет закрыт в октябре.
темп.,
°C
ветер,
м/с
пор.,
м/с
влажн.,
%
обл.,
%
осадки,
мм/ч
давл.,
гПа
погр.,
м
3 октября, пн
пн300:00−4сз3782100 0.0 1017413
03:00−4зсз3976100 0.0 1018575
06:00−4зсз4974100 0.0 1018659
09:00−3зсз4964100 0.0 1019791
12:000зсз4647100 0.0 10191370
15:00+1сз4643100 0.0 10191542
18:00−2сз2659100 0.0 1019187
21:00−4зсз277256 0.0 1020212
4 октября, вт
вт400:00−5з277619 0.0 1020254
03:00−5зсз378093 0.0 1019362
06:00−5зсз258799 0.0 1019305
09:00−3ссз3465100 0.1 1019784
12:00−1сз3456100 0.0 10181054
15:000сз4651100 0.0 10171300
18:00−2сз4872100 0.0 1017545
21:00−4сз498678 0.0 1016524
5 октября, ср
ср500:00−4сз487788 0.0 1015630
03:00−4сз487681 0.0 1014581
06:00−4сз497498 0.0 1012738
09:00−3сз586896 0.0 1011878
12:00−1сз685898 0.0 10101106
15:00−1сз585896 0.0 10091138
18:00−2сз5106984 0.0 1009773
21:00−3зсз4117515 0.0 1008711
6 октября, чт
чт600:00−4зсз411775 0.0 1007599
03:00−5з4108859 0.0 1006472
06:00−5з399253 0.0 1006343
09:00−2з367655 0.0 1006472
12:00+1зсз3462100 0.0 1006898
15:00+1зсз3461100 0.0 1006960
18:00−1зсз2478100 0.0 1007113
21:00−1сз3673100 0.0 1009498
7 октября, пт
пт700:00−3зсз2694100 0.3 1010472
03:00−3зсз3887100 0.6 1011664
06:00−4сз488292 0.1 1013688
09:00−4зсз5772100 0.2 1014841
12:00−3сз5662100 0.1 10161155
15:00−3зсз5762100 0.1 10171189
18:00−4зсз497398 0.0 1019972
21:00−5зсз497166 0.1 1020650